﻿測定場所 (Monitoring sites),日付 (Measurement date),時間 (Measurement time),線量率 最大値 (max) μGy/h,線量率 最小値 (min) μGy/h,線量率 平均値 (average) μGy/h,
足立 (Adachi),2012-12-30,23:01～24:00,0.0589,0.0517,0.0548,
足立 (Adachi),2012-12-30,22:01～23:00,0.0595,0.0526,0.0554,
足立 (Adachi),2012-12-30,21:01～22:00,0.0619,0.0535,0.0574,
足立 (Adachi),2012-12-30,20:01～21:00,0.0695,0.0556,0.0636,
足立 (Adachi),2012-12-30,19:01～20:00,0.0732,0.0650,0.0693,
足立 (Adachi),2012-12-30,18:01～19:00,0.0732,0.0653,0.0689,
足立 (Adachi),2012-12-30,17:01～18:00,0.0706,0.0600,0.0650,
足立 (Adachi),2012-12-30,16:01～17:00,0.0656,0.0561,0.0602,
足立 (Adachi),2012-12-30,15:01～16:00,0.0591,0.0533,0.0567,
足立 (Adachi),2012-12-30,14:01～15:00,0.0614,0.0529,0.0578,
足立 (Adachi),2012-12-30,13:01～14:00,0.0641,0.0555,0.0593,
足立 (Adachi),2012-12-30,12:01～13:00,0.0646,0.0567,0.0599,
足立 (Adachi),2012-12-30,11:01～12:00,0.0681,0.0581,0.0626,
足立 (Adachi),2012-12-30,10:01～11:00,0.0672,0.0587,0.0628,
足立 (Adachi),2012-12-30,09:01～10:00,0.0639,0.0539,0.0585,
足立 (Adachi),2012-12-30,08:01～09:00,0.0597,0.0543,0.0570,
足立 (Adachi),2012-12-30,07:01～08:00,0.0637,0.0551,0.0590,
足立 (Adachi),2012-12-30,06:01～07:00,0.0648,0.0558,0.0603,
足立 (Adachi),2012-12-30,05:01～06:00,0.0650,0.0579,0.0619,
足立 (Adachi),2012-12-30,04:01～05:00,0.0629,0.0548,0.0586,
足立 (Adachi),2012-12-30,03:01～04:00,0.0619,0.0522,0.0565,
足立 (Adachi),2012-12-30,02:01～03:00,0.0595,0.0522,0.0566,
足立 (Adachi),2012-12-30,01:01～02:00,0.0592,0.0528,0.0560,
足立 (Adachi),2012-12-30,00:01～01:00,0.0596,0.0518,0.0562,
足立 (Adachi),2012-12-29,23:01～24:00,0.0597,0.0521,0.0555,
足立 (Adachi),2012-12-29,22:01～23:00,0.0597,0.0523,0.0555,
足立 (Adachi),2012-12-29,21:01～22:00,0.0583,0.0521,0.0551,
足立 (Adachi),2012-12-29,20:01～21:00,0.0595,0.0515,0.0556,
足立 (Adachi),2012-12-29,19:01～20:00,0.0584,0.0523,0.0554,
足立 (Adachi),2012-12-29,18:01～19:00,0.0589,0.0521,0.0552,
足立 (Adachi),2012-12-29,17:01～18:00,0.0586,0.0508,0.0549,
足立 (Adachi),2012-12-29,16:01～17:00,0.0597,0.0525,0.0553,
足立 (Adachi),2012-12-29,15:01～16:00,0.0587,0.0526,0.0553,
足立 (Adachi),2012-12-29,14:01～15:00,0.0587,0.0520,0.0555,
足立 (Adachi),2012-12-29,13:01～14:00,0.0586,0.0512,0.0554,
足立 (Adachi),2012-12-29,12:01～13:00,0.0591,0.0517,0.0554,
足立 (Adachi),2012-12-29,11:01～12:00,0.0586,0.0524,0.0554,
足立 (Adachi),2012-12-29,10:01～11:00,0.0586,0.0522,0.0554,
足立 (Adachi),2012-12-29,09:01～10:00,0.0586,0.0514,0.0551,
足立 (Adachi),2012-12-29,08:01～09:00,0.0593,0.0514,0.0550,
足立 (Adachi),2012-12-29,07:01～08:00,0.0590,0.0518,0.0550,
足立 (Adachi),2012-12-29,06:01～07:00,0.0582,0.0518,0.0554,
足立 (Adachi),2012-12-29,05:01～06:00,0.0606,0.0538,0.0563,
足立 (Adachi),2012-12-29,04:01～05:00,0.0587,0.0523,0.0556,
足立 (Adachi),2012-12-29,03:01～04:00,0.0594,0.0525,0.0558,
足立 (Adachi),2012-12-29,02:01～03:00,0.0625,0.0521,0.0575,
足立 (Adachi),2012-12-29,01:01～02:00,0.0654,0.0579,0.0610,
足立 (Adachi),2012-12-29,00:01～01:00,0.0656,0.0575,0.0615,
足立 (Adachi),2012-12-28,23:01～24:00,0.0652,0.0578,0.0610,
足立 (Adachi),2012-12-28,22:01～23:00,0.0639,0.0578,0.0610,
足立 (Adachi),2012-12-28,21:01～22:00,0.0623,0.0560,0.0591,
足立 (Adachi),2012-12-28,20:01～21:00,0.0610,0.0538,0.0575,
足立 (Adachi),2012-12-28,19:01～20:00,0.0658,0.0551,0.0596,
足立 (Adachi),2012-12-28,18:01～19:00,0.0659,0.0587,0.0617,
足立 (Adachi),2012-12-28,17:01～18:00,0.0665,0.0577,0.0610,
足立 (Adachi),2012-12-28,16:01～17:00,0.0622,0.0557,0.0588,
足立 (Adachi),2012-12-28,15:01～16:00,0.0621,0.0530,0.0571,
足立 (Adachi),2012-12-28,14:01～15:00,0.0611,0.0538,0.0568,
足立 (Adachi),2012-12-28,13:01～14:00,0.0599,0.0531,0.0565,
足立 (Adachi),2012-12-28,12:01～13:00,0.0608,0.0528,0.0568,
足立 (Adachi),2012-12-28,11:01～12:00,0.0610,0.0529,0.0570,
足立 (Adachi),2012-12-28,10:01～11:00,0.0598,0.0533,0.0570,
足立 (Adachi),2012-12-28,09:01～10:00,0.0620,0.0527,0.0574,
足立 (Adachi),2012-12-28,08:01～09:00,0.0593,0.0524,0.0564,
足立 (Adachi),2012-12-28,07:01～08:00,0.0593,0.0533,0.0562,
足立 (Adachi),2012-12-28,06:01～07:00,0.0593,0.0528,0.0563,
足立 (Adachi),2012-12-28,05:01～06:00,0.0604,0.0528,0.0572,
足立 (Adachi),2012-12-28,04:01～05:00,0.0613,0.0543,0.0579,
足立 (Adachi),2012-12-28,03:01～04:00,0.0608,0.0541,0.0578,
足立 (Adachi),2012-12-28,02:01～03:00,0.0603,0.0550,0.0575,
足立 (Adachi),2012-12-28,01:01～02:00,0.0613,0.0534,0.0570,
足立 (Adachi),2012-12-28,00:01～01:00,0.0615,0.0529,0.0566,
足立 (Adachi),2012-12-27,23:01～24:00,0.0606,0.0535,0.0564,
足立 (Adachi),2012-12-27,22:01～23:00,0.0600,0.0514,0.0564,
足立 (Adachi),2012-12-27,21:01～22:00,0.0598,0.0539,0.0568,
足立 (Adachi),2012-12-27,20:01～21:00,0.0598,0.0530,0.0564,
足立 (Adachi),2012-12-27,19:01～20:00,0.0605,0.0535,0.0565,
足立 (Adachi),2012-12-27,18:01～19:00,0.0601,0.0514,0.0561,
足立 (Adachi),2012-12-27,17:01～18:00,0.0599,0.0524,0.0563,
足立 (Adachi),2012-12-27,16:01～17:00,0.0592,0.0533,0.0560,
足立 (Adachi),2012-12-27,15:01～16:00,0.0608,0.0521,0.0562,
足立 (Adachi),2012-12-27,14:01～15:00,0.0599,0.0528,0.0560,
足立 (Adachi),2012-12-27,13:01～14:00,0.0599,0.0515,0.0560,
足立 (Adachi),2012-12-27,12:01～13:00,0.0603,0.0509,0.0562,
足立 (Adachi),2012-12-27,11:01～12:00,0.0601,0.0518,0.0559,
足立 (Adachi),2012-12-27,10:01～11:00,0.0593,0.0509,0.0557,
足立 (Adachi),2012-12-27,09:01～10:00,0.0592,0.0520,0.0555,
足立 (Adachi),2012-12-27,08:01～09:00,0.0577,0.0496,0.0551,
足立 (Adachi),2012-12-27,07:01～08:00,0.0586,0.0523,0.0555,
足立 (Adachi),2012-12-27,06:01～07:00,0.0595,0.0506,0.0556,
足立 (Adachi),2012-12-27,05:01～06:00,0.0596,0.0533,0.0561,
足立 (Adachi),2012-12-27,04:01～05:00,0.0598,0.0514,0.0562,
足立 (Adachi),2012-12-27,03:01～04:00,0.0592,0.0530,0.0561,
足立 (Adachi),2012-12-27,02:01～03:00,0.0598,0.0536,0.0563,
足立 (Adachi),2012-12-27,01:01～02:00,0.0596,0.0529,0.0566,
足立 (Adachi),2012-12-27,00:01～01:00,0.0603,0.0526,0.0569,
足立 (Adachi),2012-12-26,23:01～24:00,0.0597,0.0529,0.0567,
足立 (Adachi),2012-12-26,22:01～23:00,0.0603,0.0520,0.0569,
足立 (Adachi),2012-12-26,21:01～22:00,0.0603,0.0531,0.0567,
足立 (Adachi),2012-12-26,20:01～21:00,0.0605,0.0520,0.0562,
足立 (Adachi),2012-12-26,19:01～20:00,0.0600,0.0525,0.0564,
足立 (Adachi),2012-12-26,18:01～19:00,0.0590,0.0516,0.0559,
足立 (Adachi),2012-12-26,17:01～18:00,0.0602,0.0523,0.0563,
足立 (Adachi),2012-12-26,16:01～17:00,0.0594,0.0533,0.0564,
足立 (Adachi),2012-12-26,15:01～16:00,0.0604,0.0522,0.0564,
足立 (Adachi),2012-12-26,14:01～15:00,0.0597,0.0523,0.0562,
足立 (Adachi),2012-12-26,13:01～14:00,0.0591,0.0515,0.0557,
足立 (Adachi),2012-12-26,12:01～13:00,0.0597,0.0536,0.0567,
足立 (Adachi),2012-12-26,11:01～12:00,0.0596,0.0531,0.0562,
足立 (Adachi),2012-12-26,10:01～11:00,0.0610,0.0525,0.0565,
足立 (Adachi),2012-12-26,09:01～10:00,0.0606,0.0530,0.0567,
足立 (Adachi),2012-12-26,08:01～09:00,0.0601,0.0536,0.0564,
足立 (Adachi),2012-12-26,07:01～08:00,0.0611,0.0527,0.0559,
足立 (Adachi),2012-12-26,06:01～07:00,0.0594,0.0515,0.0559,
足立 (Adachi),2012-12-26,05:01～06:00,0.0595,0.0521,0.0560,
足立 (Adachi),2012-12-26,04:01～05:00,0.0587,0.0526,0.0556,
足立 (Adachi),2012-12-26,03:01～04:00,0.0592,0.0527,0.0559,
足立 (Adachi),2012-12-26,02:01～03:00,0.0612,0.0525,0.0560,
足立 (Adachi),2012-12-26,01:01～02:00,0.0603,0.0539,0.0568,
足立 (Adachi),2012-12-26,00:01～01:00,0.0603,0.0530,0.0568,
足立 (Adachi),2012-12-25,23:01～24:00,0.0608,0.0529,0.0566,
足立 (Adachi),2012-12-25,22:01～23:00,0.0595,0.0540,0.0567,
足立 (Adachi),2012-12-25,21:01～22:00,0.0602,0.0524,0.0567,
足立 (Adachi),2012-12-25,20:01～21:00,0.0598,0.0524,0.0567,
足立 (Adachi),2012-12-25,19:01～20:00,0.0598,0.0523,0.0561,
足立 (Adachi),2012-12-25,18:01～19:00,0.0599,0.0528,0.0565,
足立 (Adachi),2012-12-25,17:01～18:00,0.0587,0.0518,0.0558,
足立 (Adachi),2012-12-25,16:01～17:00,0.0630,0.0538,0.0561,
足立 (Adachi),2012-12-25,15:01～16:00,0.0604,0.0545,0.0566,
足立 (Adachi),2012-12-25,14:01～15:00,0.0608,0.0531,0.0564,
足立 (Adachi),2012-12-25,13:01～14:00,0.0602,0.0528,0.0569,
足立 (Adachi),2012-12-25,12:01～13:00,0.0603,0.0535,0.0566,
足立 (Adachi),2012-12-25,11:01～12:00,0.0600,0.0528,0.0566,
足立 (Adachi),2012-12-25,10:01～11:00,0.0595,0.0534,0.0564,
足立 (Adachi),2012-12-25,09:01～10:00,0.0599,0.0531,0.0564,
足立 (Adachi),2012-12-25,08:01～09:00,0.0593,0.0510,0.0562,
足立 (Adachi),2012-12-25,07:01～08:00,0.0614,0.0532,0.0567,
足立 (Adachi),2012-12-25,06:01～07:00,0.0588,0.0528,0.0558,
足立 (Adachi),2012-12-25,05:01～06:00,0.0587,0.0533,0.0558,
足立 (Adachi),2012-12-25,04:01～05:00,0.0600,0.0537,0.0565,
足立 (Adachi),2012-12-25,03:01～04:00,0.0601,0.0520,0.0564,
足立 (Adachi),2012-12-25,02:01～03:00,0.0591,0.0532,0.0560,
足立 (Adachi),2012-12-25,01:01～02:00,0.0594,0.0536,0.0559,
足立 (Adachi),2012-12-25,00:01～01:00,0.0595,0.0540,0.0560,
足立 (Adachi),2012-12-24,23:01～24:00,0.0603,0.0525,0.0563,
足立 (Adachi),2012-12-24,22:01～23:00,0.0599,0.0532,0.0566,
足立 (Adachi),2012-12-24,21:01～22:00,0.0601,0.0529,0.0557,
足立 (Adachi),2012-12-24,20:01～21:00,0.0598,0.0530,0.0559,
足立 (Adachi),2012-12-24,19:01～20:00,0.0609,0.0534,0.0562,
足立 (Adachi),2012-12-24,18:01～19:00,0.0591,0.0524,0.0563,
足立 (Adachi),2012-12-24,17:01～18:00,0.0593,0.0534,0.0562,
足立 (Adachi),2012-12-24,16:01～17:00,0.0612,0.0514,0.0557,
足立 (Adachi),2012-12-24,15:01～16:00,0.0597,0.0522,0.0561,
足立 (Adachi),2012-12-24,14:01～15:00,0.0600,0.0537,0.0567,
足立 (Adachi),2012-12-24,13:01～14:00,0.0601,0.0529,0.0561,
足立 (Adachi),2012-12-24,12:01～13:00,0.0601,0.0532,0.0564,
足立 (Adachi),2012-12-24,11:01～12:00,0.0593,0.0535,0.0566,
足立 (Adachi),2012-12-24,10:01～11:00,0.0595,0.0526,0.0562,
足立 (Adachi),2012-12-24,09:01～10:00,0.0605,0.0521,0.0563,
足立 (Adachi),2012-12-24,08:01～09:00,0.0590,0.0520,0.0559,
足立 (Adachi),2012-12-24,07:01～08:00,0.0582,0.0517,0.0557,
足立 (Adachi),2012-12-24,06:01～07:00,0.0604,0.0538,0.0564,
足立 (Adachi),2012-12-24,05:01～06:00,0.0594,0.0537,0.0562,
足立 (Adachi),2012-12-24,04:01～05:00,0.0604,0.0534,0.0564,
足立 (Adachi),2012-12-24,03:01～04:00,0.0590,0.0536,0.0569,
足立 (Adachi),2012-12-24,02:01～03:00,0.0601,0.0542,0.0569,
足立 (Adachi),2012-12-24,01:01～02:00,0.0598,0.0532,0.0565,
足立 (Adachi),2012-12-24,00:01～01:00,0.0598,0.0528,0.0566,
